Regional Weather Roundup
Issued by NWS Wakefield, VA

Home | Current Version | Previous Version | Text Only | Print | Product List | Glossary On
Versions: 1 2 3 4 5 6 7 8 9 10 11 12 13 14 15 16 17 18 19 20 21 22 23 24 25 26 27 28
000
ASUS41 KAKQ 311115
RWRAKQ

REGIONAL WEATHER ROUNDUP
NATIONAL WEATHER SERVICE WAKEFIELD VA
700 AM EDT TUE MAY 31 2016

Note: "fair" indicates few or no clouds below 12,000 feet with no
significant weather and/or obstructions to visibility. * = Denotes
station may not report precipitation (e.g., rain,snow,etc.),
thunder or fog.

VAZ042-051-052>054-056-311200-
NORTHERN VIRGINIA

CITY           SKY/WX    TMP DP  RH WIND       PRES   REMARKS
WASH NATIONAL  PTSUNNY   72  66  81 CALM      29.96R
DULLES         CLOUDY    70  67  90 W3        29.97R FOG
FORT BELVOIR   FAIR      68  66  94 CALM      29.96R
QUANTICO       FAIR      68  66  93 NW3       29.97R
FREDERICKSBRG* FOG       66  66 100 CALM      29.96R VSB 1/4
STAFFORD*      FOG       64  63  97 CALM      30.00S VSB<1/4
WARRENTON      FAIR      71  66  84 CALM      29.97R HAZE
CULPEPER*      CLOUDY    70  69  98 CALM      29.98R FOG
MANASSAS*      PTSUNNY   70  68  94 CALM      29.97R
LEESBURG*      FAIR      72  72 100 NW3       29.98R
WINCHESTER     FAIR      63  63 100 CALM      30.00R FOG
FRONT ROYAL*   CLOUDY    64  63  94 CALM      29.99R VSB 1/2
LURAY*         FOG       63  63 100 CALM      30.01R VSB<1/4
$$

VAZ048-049-060>072-079>083-311200-
CENTRAL AND SOUTH CENTRAL VIRGINIA

CITY           SKY/WX    TMP DP  RH WIND       PRES   REMARKS
RICHMOND       FOG       65  65 100 CALM      29.96R VSB 1/4
CHESTERFIELD*    N/A    N/A N/A N/A MISG        N/A
PETERSBURG*    FOG       69  69 100 CALM      29.97R VSB 1/4
HANOVER        FOG       67  65  93 CALM      29.97R VSB 1/4
TAPPAHANNOCK*  FOG       68  68 100 CALM      29.97R VSB<1/4
QUINTON*       FOG       65  65 100 CALM      29.95R VSB 1/4
CHARLOTTSVILLE FOG       65  63  93 CALM      29.98R VSB 1/4
GORDONSVILLE*  FAIR      67  67  98 W6        29.96S
ORANGE*        FAIR      68  68 100 CALM      29.98S
LOUISA*        FOG       70  68  94 CALM      29.96R VSB<1/4
BUMPASS*       CLOUDY    65  65 100 CALM      29.97R VSB<1/4
FARMVILLE*     FOG       67  67 100 CALM      29.96R VSB 1/4
CREWE*         CLOUDY    67  67 100 CALM      29.97R VSB 1/4
FORT PICKETT*  NOT AVBL
CHASE CITY*    CLOUDY    66  65  94 CALM      29.97R
CLARKSVILLE*   CLOUDY    68  68 100 N5        29.96R VSB 1
SOUTH HILL*    CLOUDY    67  67 100 CALM      30.02R VSB 3/4
LAWRENCEVILLE* CLOUDY    66  66 100 CALM      29.96R
EMPORIA*       CLOUDY    66  66 100 CALM      29.97S
$$

VAZ088>098-311200-
SOUTHEAST VIRGINIA

CITY           SKY/WX    TMP DP  RH WIND       PRES   REMARKS
NORFOLK        CLOUDY    71  68  90 CALM      29.94R
VIRGINIA BEACH CLOUDY    74  67  78 CALM      29.94R
NORFOLK NAVAL  CLOUDY    71  69  93 CALM      29.96R FOG
WEST POINT*    CLOUDY    68  68  99 CALM      29.96S
SALUDA*        CLOUDY    68  68 100 CALM      29.95S
NEWPORT NEWS   CLOUDY    70  69  97 CALM      29.95R
LANGLEY AFB    DRIZZLE   70  70 100 CALM      29.95R
FORT EUSTIS    CLOUDY    70  55  59 N3        29.94R
WILLIAMSBURG*  CLOUDY    70  70 100 CALM      29.96R VSB 3/4
HR EXEC AP*    CLOUDY    70  66  88 CALM      29.97R
FRANKLIN*      CLOUDY    68  67  98 CALM      29.96R FOG
US460-WAKEFLD  CLOUDY    67  66  97 CALM      29.96R
$$

VAZ020-022-025-037-045-311200-
WEST CENTRAL AND SOUTHWEST VIRGINIA

CITY           SKY/WX    TMP DP  RH WIND       PRES   REMARKS
STAUNTON*      FOG       60  60 100 CALM      30.04R VSB<1/4
WAYNESBORO*    FAIR      61  60  96 CALM      30.02R
HOT SPRINGS VA FAIR      64  58  80 CALM      30.10R
LYNCHBURG      FAIR      67  67 100 CALM      30.00R
DANVILLE       CLOUDY    69  68  96 NE5       29.97R
SOUTH BOSTON*  CLOUDY    68  67  95 CALM      29.97R
MARTINSVILLE   FAIR      61  61 100 CALM      30.01R
ROANOKE        FAIR      65  64  97 NE3       30.02S
BLACKSBURG     FOG       61  61 100 CALM      30.08R VSB<1/4
DUBLIN*        CLOUDY    62  62 100 CALM      30.07R FOG
MARION*        CLOUDY    57  56  96 CALM      30.10R FOG
HILLSVILLE*    CLOUDY    59  59 100 CALM      30.05S FOG
RICHLANDS*     FAIR      62  58  87 CALM      30.08R
WISE*          FAIR      63  61  94 CALM      30.09S
ABINGDON*      FAIR      63  62  97 CALM      30.05R
$$

MDZ021>025-VAZ099-100-311200-
SOUTHERN MARYLAND AND THE DELMARVA PENINSULA

CITY           SKY/WX    TMP DP  RH WIND       PRES   REMARKS
PATUXENT RIVER CLOUDY    69  66  90 N3        29.96R
BAY BRIDGE APT CLOUDY    70  68  94 CALM      29.96S
LEONARDTOWN    CLOUDY    66  64  94 CALM      29.98R
DOVER          CLOUDY    68  68 100 CALM      29.96R
GEORGETOWN     FOG       68  67  96 CALM      29.97R VSB 3/4
EASTON         PTSUNNY   68  68 100 SE3       30.00R
CAMBRIDGE        N/A     64  64 100 CALM      29.96S
SALISBURY      CLOUDY    67  66  97 N3        29.96R
OCEAN CITY     CLOUDY    66  65  96 CALM      29.96R
WALLOPS ISLAND CLOUDY    69  68  96 E3        29.95R
ACCOMACK*      FOG       68  64  88 CALM      29.95S VSB<1/4
$$

NCZ012>017-030>032-311200-
NORTH CENTRAL AND EASTERN NORTH CAROLINA

CITY           SKY/WX    TMP DP  RH WIND       PRES   REMARKS
ROANOKE RAPIDS FOG       68  68 100 CALM      29.95R VSB<1/4
RALEIGH        CLOUDY    70  69  97 E5        29.96R FOG
ELIZABETH CITY CLOUDY    71  68  90 NE5       29.95R
AHOSKIE*       CLOUDY    68  67  98 CALM      29.95R FOG
EDENTON*       CLOUDY   N/A N/A N/A NE3       29.95R
CURRITUCK*     CLOUDY    70  70 100 CALM      29.95R
KILL DEVIL HLS FOG       68  68 100 CALM      29.94R VSB 1/4
MANTEO         NOT AVBL
CAPE HATTERAS  PTSUNNY   72  71  97 N5        29.93R
TARBORO*       CLOUDY    71  69  95 CALM      29.95S
GOLDSBORO      NOT AVBL
WASHINGTON     FOG       68  68  99 NE6       29.94R VSB 1/2
GREENVILLE     CLOUDY    70  70 100 N8        29.95S FOG
NEW BERN       LGT RAIN  71  70  96 NE7       29.93R FOG
WILMINGTON     LGT RAIN  71  70  96 NE8       29.90R FOG
$$

VAZ048-311200-
ELSEWHERE

CITY           SKY/WX    TMP DP  RH WIND       PRES   REMARKS
HARRISBURG PA  FOG       66  64  93 N7        29.98R VSB 1/4
BALTIMORE      MOSUNNY   70  67  90 CALM      29.95R
ANNAPOLIS      CLOUDY    69  67  93 SE7       29.96R
ANDREWS AFB    CLOUDY    68  67  96 SE1       29.96R
PHILADELPHIA   PTSUNNY   70  67  90 W6        29.96R
HENDERSON NC   FOG       67  66  99 NE3       29.97R VSB 1/4
GREENSBORO     PTCLDY    67  64  90 CALM      29.97R
ROCKY MOUNT    CLOUDY    71  69  93 NE5       29.94R
$$

VAZ100-311200-
MARINE

STATION/POSITION TIME  TEMP    WIND        PRES    WAVE   SWELL
                       AIR SEA DIR/SP/G            HT/PER HT/PER
                 (UTC) (F)     (DEG/KT/KT) (MB)    (FT/S) (FT/S)
BRANDYWINE LGT   1000   66     150/  6/  6 1014.6R
CAPE MAY NJ      1000   66 68  120/  4/  5 1014.3R
LEWES DE         1000   64 64   60/  5/  6 1014.5R
15NM E FENWICK I 1050   65 64              1014.3R   4/ 8
OCEAN-CITY-INLET 1000   64 58   CALM  /  1 1014.4R
WACHAPREAGUE VA  1000   68 73   30/  4/  5 1013.4R
THOMAS POINT MD  1100   69 69  180/  3/  3 1015.9R
GOOSES REEF MD   1000   69 69   10/  2/  4 1015.3R   0
COVE POINT MD    1000   67      CALM  /  2 1014.9R
SOLOMONS ISLAND  1000   68 68  250/  2/  3   N/A
BISHOPS HEAD MD  1000   68 72   10/  3/  4 1014.1R
PINEY POINT MD   1000           20/  2/  3   N/A
POTOMAC MD       1000   69 71  350/  2/  4 1013.2R   0
CAMBRIDGE MD     1000   67 70  120/  2/  3 1013.5R
LEWISETTA VA     1000   68 71   CALM  /  1 1013.8R
RAPPAHANNOCK LGT 1000          340/  4/  5 1014.5R
STINGRAY PT      1000   69 69   10/  2/  4 1014.3R   0
YORK RVR RNG VA  1000   69      70/  4/  5 1013.0R
YORKTOWN VA      1000   70 70     CALM     1013.3R
JAMESTOWN VA     1000   69 74  340/  4/  4   N/A     0
DOMINION TERM VA 1000   70      50/  2/  3 1013.5R
KIPTOPEKE VA     1000      69     CALM       N/A
CHES BAY BRIDGE  1000   69 65   50/  4/  4 1013.3S
CAPE HENRY VA    1000   68      20/  2/  2   N/A
CHESAPEAKE LGHT  1000   69      30/  5/  5 1014.3R
WILLOUBY STN VA  1000   69      70/  4/  4 1014.4R
CAPE HENRY BUOY  1012      68                N/A     3/ 7
1ST LANDING BUOY 1000   68 69   70/  2/  4 1013.5R   2/ 4
CAPE CHARLES BUO 1026      69                N/A     3/ 8   3/ 8
OFFSHORE WE BUOY 1021      70                N/A     5/ 8   5/ 8
64NM E OF VA BCH 1050   65 65  320/ 10/ 12 1013.4R   6/ 8   5/ 8
DUCK PIER NC     1000   65 58   10/  5/  5 1012.8R
44100 DUCK FRF   1024      67                N/A     5/ 8
44056 DUCK FRF   1011      62                N/A     4/ 8
OREGON INLET NC  1000   67 74   20/  3/  4 1013.1R
HATTERAS NC      1000   72 74   20/  2/  3 1012.3R
DIAMOND SHLS NC  1050   76 80  170/ 17/ 19 1013.0R   6/ 9   5/ 9
CAPE LOOKOUT NC1F1C2F2C3F3C4F4C5F5C6F6C7F7C8M1C9!



USA.gov is the U.S. government's official web portal to all federal, state and local government web resources and services.